Theta_e
307 306 305 305 305 305 305 305 304 304 304 305 305 305 305 305 306 306 306 305 304 306 307 302 303 310 306 300 301 302 302 300 300 300 300 301 300 300 303 303 303 304 302 302 304 303 305 307 306 306 306 303 301 298 297 297 297 299 301 300 297 298 301 303 305 306 303 298 293 291 291 294 297 299 298 299 301 303 304 303 302 302 300 299 300 301 303
307 307 306 305 305 305 304 304 304 304 304 304 304 305 305 304 306 306 306 306 303 306 308 306 312 314 304 300 301 301 300 300 301 302 302 301 301 303 306 303 301 301 300 302 304 302 304 306 303 303 306 304 298 296 297 297 296 298 300 299 298 300 304 304 305 308 307 305 305 301 297 297 298 300 298 297 299 300 299 297 296 299 302 302 302 302 302
307 307 306 305 305 305 304 304 304 304 304 304 304 304 305 305 306 306 306 306 303 306 308 307 313 317 309 304 303 302 302 300 300 302 302 300 299 302 304 300 299 301 300 302 304 302 302 304 302 300 303 301 296 294 296 296 296 297 297 296 296 300 304 303 303 307 306 308 310 307 305 302 299 300 298 295 297 298 300 300 299 300 300 299 302 303 301
307 306 306 305 305 305 304 304 304 304 304 304 303 304 305 305 306 306 306 306 303 305 305 304 310 316 312 305 303 303 304 300 299 300 301 300 298 299 301 299 300 302 301 303 306 303 301 301 301 302 304 302 296 293 296 295 295 297 296 295 297 299 300 300 303 306 305 305 305 301 301 301 300 301 300 298 297 296 299 302 301 301 300 299 300 301 299
307 306 305 305 305 304 304 304 304 304 304 304 303 304 305 305 306 306 306 306 304 304 303 302 303 305 305 303 302 304 305 301 299 300 300 300 298 298 299 299 300 303 303 304 306 304 301 301 301 302 303 302 296 292 294 295 295 296 295 295 298 301 301 300 301 303 302 302 301 298 298 298 298 299 299 299 298 296 297 299 300 301 301 300 299 299 299
307 306 305 305 304 304 304 304 304 304 304 304 303 303 305 306 305 304 304 305 305 304 303 302 300 299 301 302 301 303 306 304 303 302 300 299 299 299 300 300 302 304 303 303 305 305 303 303 303 302 302 301 299 296 294 293 294 295 294 294 296 300 302 299 298 301 301 299 297 297 297 297 297 298 298 298 298 297 297 298 298 299 299 299 299 300 299
306 306 305 304 304 304 304 304 304 304 304 304 303 303 304 304 304 303 303 304 303 302 302 301 300 300 301 303 302 304 309 308 303 300 300 301 299 298 302 304 304 305 304 302 305 307 305 303 304 304 302 301 301 302 299 295 293 293 294 294 293 298 304 300 296 299 300 299 298 297 297 298 297 298 298 297 297 297 296 296 296 296 296 297 297 297 296
305 305 304 304 304 304 304 304 304 304 304 303 303 304 304 304 305 304 303 302 301 301 301 300 302 301 300 302 302 302 308 310 303 299 301 303 302 298 302 306 304 302 302 302 305 307 304 301 301 302 302 301 303 304 302 300 296 293 295 295 293 296 302 299 296 299 301 301 301 299 298 298 297 297 297 297 296 297 295 295 295 295 296 296 295 295 296
305 304 304 304 304 304 304 304 304 303 304 304 303 304 304 305 306 304 303 303 300 301 300 298 303 306 303 303 303 303 308 308 302 301 300 300 303 301 301 304 303 300 301 303 305 302 299 300 300 299 300 301 302 300 298 300 302 298 295 295 295 296 299 299 298 301 302 301 301 300 297 297 297 299 301 301 301 301 300 298 297 297 298 297 296 297 298
304 304 304 304 304 304 303 304 304 303 303 304 303 304 304 304 305 304 304 304 301 300 300 298 301 306 304 301 301 303 304 300 299 302 301 298 301 302 298 299 302 303 304 305 304 300 298 299 299 298 298 298 298 297 296 297 303 302 297 295 295 295 298 300 298 301 304 302 299 298 297 301 303 301 301 302 303 303 301 300 298 296 296 297 298 298 297
304 303 304 304 303 304 304 303 304 304 303 303 303 303 304 304 304 303 303 304 301 297 299 301 303 304 301 300 301 301 300 298 298 301 302 300 300 302 300 298 301 304 305 302 300 299 298 298 297 297 297 297 296 296 295 294 296 297 297 298 295 292 296 298 295 300 306 303 298 297 300 305 306 301 299 301 301 300 300 299 299 297 295 297 299 297 295
303 303 303 304 303 304 304 303 304 303 303 303 303 303 303 303 304 304 302 305 304 297 300 305 302 301 301 301 301 301 300 301 300 299 300 300 299 301 301 299 300 303 302 299 299 299 298 297 296 296 296 296 295 295 294 294 293 292 294 298 298 295 295 296 295 297 302 301 300 303 307 307 303 299 299 299 298 299 299 298 298 297 296 296 297 295 294
304 304 304 304 304 304 304 304 304 304 303 303 303 303 303 303 304 304 302 304 306 302 302 304 299 297 300 299 299 301 301 300 300 299 300 300 299 300 300 299 299 300 299 298 298 297 298 298 298 298 296 294 294 295 295 294 293 292 292 294 297 299 298 297 296 297 299 300 301 304 305 303 299 298 298 296 295 298 297 297 298 297 295 295 294 294 294
304 304 303 304 303 303 303 303 303 304 303 303 303 302 303 303 303 304 302 304 305 301 300 304 302 298 299 299 299 300 299 298 299 299 299 299 300 299 299 299 299 299 299 298 297 297 299 302 305 305 302 299 298 297 297 294 292 292 293 291 292 297 299 298 297 297 297 299 300 301 302 300 298 298 297 295 294 296 295 296 297 295 294 294 294 294 293
304 303 303 304 303 303 303 303 303 303 303 303 303 303 303 303 303 303 303 303 304 300 299 304 304 300 299 300 299 300 300 300 300 298 297 298 299 299 298 298 298 298 298 297 298 300 300 301 306 308 307 306 302 300 301 298 293 291 291 289 288 291 296 298 297 297 296 298 300 302 304 304 299 296 296 294 294 293 292 294 296 295 293 294 294 293 293
304 304 304 304 304 304 304 303 303 303 303 303 303 303 303 302 302 303 303 303 304 303 302 301 301 301 300 300 299 299 302 302 299 298 300 300 298 298 298 298 298 298 297 295 297 301 302 302 303 304 304 303 301 300 302 302 299 293 290 290 290 291 295 297 297 298 298 298 300 302 304 304 298 294 295 295 293 292 290 293 298 297 293 293 294 293 292
305 305 305 305 305 304 304 304 304 303 303 303 303 303 302 302 302 302 302 303 303 303 302 301 301 302 301 300 300 299 299 300 298 299 303 303 298 297 298 297 296 297 297 297 298 301 304 305 302 303 305 301 298 301 301 300 302 299 294 295 296 296 297 297 297 299 298 297 299 301 301 300 297 295 296 295 292 292 292 295 298 297 294 293 293 292 292
305 305 305 305 305 304 304 304 304 303 303 303 303 303 303 302 303 302 302 302 302 302 302 301 302 302 301 301 301 299 298 299 298 299 301 300 297 298 298 296 297 297 296 298 302 304 304 304 300 302 305 299 296 299 301 300 302 301 297 297 297 297 297 295 295 299 298 296 298 299 300 299 296 294 295 294 292 293 295 295 295 294 293 293 293 292 292
305 305 305 304 304 304 304 304 304 303 303 303 302 303 303 303 303 302 302 302 302 302 302 301 302 302 301 300 300 299 299 299 299 301 303 301 299 298 297 296 296 297 295 296 300 301 302 302 298 297 302 303 299 299 299 300 300 299 298 298 297 298 297 294 294 297 296 295 297 299 299 298 294 293 295 294 294 295 295 294 294 293 293 293 292 293 292
305 304 304 304 304 304 304 304 303 303 303 303 303 303 303 303 302 302 302 302 302 302 302 301 301 301 301 300 300 300 300 299 300 301 303 302 299 298 300 301 298 297 297 298 299 299 300 302 299 296 301 305 301 298 299 301 300 297 297 298 298 297 299 299 298 296 294 295 298 299 299 297 294 294 295 294 294 295 294 293 293 293 292 292 292 292 292
304 304 304 304 304 304 303 303 303 303 303 303 303 303 303 303 302 302 301 302 302 302 301 301 300 300 299 299 299 299 300 300 300 300 300 300 299 298 301 301 298 298 299 299 299 298 298 300 300 298 299 300 298 297 299 303 301 295 293 297 298 296 296 299 299 296 296 300 301 299 298 296 294 294 294 294 294 294 293 293 292 292 292 292 292 292 292
304 304 304 303 304 303 303 303 303 303 303 303 303 303 303 303 302 302 302 302 302 301 300 300 299 299 299 299 299 299 299 299 300 300 299 299 299 299 299 299 298 299 298 297 299 298 297 299 299 298 298 299 298 297 297 299 302 298 293 295 298 296 295 296 297 297 297 298 298 297 295 294 294 294 294 293 294 293 293 292 292 291 292 291 291 291 291
303 303 303 303 304 303 303 303 303 303 303 303 303 303 302 302 302 302 302 301 301 301 300 299 299 299 299 299 299 299 299 298 299 299 299 299 299 298 298 298 298 298 297 297 298 297 297 298 297 296 299 299 298 298 298 297 299 299 296 295 296 295 293 293 295 298 296 294 294 294 293 293 293 293 293 293 293 293 292 292 291 291 291 291 291 291 291
303 303 303 303 304 303 303 303 303 303 303 303 303 302 302 302 302 302 302 301 301 301 300 299 299 299 299 299 299 299 298 298 298 298 298 298 298 298 298 298 298 298 297 298 297 296 296 296 293 293 298 298 296 299 301 298 296 296 297 297 297 295 293 293 295 296 295 294 294 293 293 293 293 292 293 293 293 292 292 292 291 291 291 291 291 290 290
303 303 303 303 303 303 303 303 302 302 302 302 302 302 302 302 302 302 302 302 302 302 300 299 298 298 298 298 298 298 298 298 298 298 297 297 297 297 297 297 297 298 297 297 297 296 296 295 294 295 298 297 295 298 300 297 296 295 296 296 296 294 294 294 295 295 294 294 294 293 292 293 292 292 293 293 292 292 292 291 291 291 290 290 290 290 290
304 303 303 303 303 303 303 302 302 302 302 302 302 302 302 302 302 302 302 303 302 302 301 299 298 299 299 299 298 298 298 298 297 297 297 297 296 296 296 296 296 296 296 296 296 296 295 294 295 297 298 295 295 296 297 295 295 294 295 295 294 293 293 293 293 293 293 293 293 292 292 292 292 292 292 292 292 292 291 291 291 290 290 290 289 289 289
304 303 303 303 303 303 303 302 302 302 302 302 302 302 302 302 302 302 302 303 303 303 302 300 299 298 299 298 298 298 298 298 298 297 297 296 296 296 296 296 295 295 295 295 295 295 295 294 294 294 294 293 294 294 293 293 294 294 294 293 292 292 292 292 293 293 293 292 292 292 291 291 291 291 291 291 291 291 291 290 290 289 289 289 289 289 289
304 303 303 303 303 303 302 302 302 302 303 303 302 302 303 303 303 302 302 302 303 304 303 300 298 299 299 299 298 298 298 298 298 297 297 296 296 296 296 295 295 295 295 295 295 294 294 294 294 293 292 293 294 293 291 292 295 295 292 291 291 291 291 292 292 292 292 292 292 292 291 291 291 291 291 291 291 290 290 290 289 289 289 288 288 288 288
304 304 304 303 303 303 303 303 303 302 303 303 303 302 303 303 303 303 303 302 303 303 302 300 299 299 299 299 298 298 299 299 298 297 297 297 297 296 296 295 295 295 295 295 295 294 294 294 294 293 292 293 294 294 293 296 297 295 291 290 291 290 290 291 291 291 291 292 291 291 291 290 291 291 291 290 290 290 289 289 288 288 288 287 288 288 287
305 305 305 304 304 304 303 303 303 302 303 303 303 303 303 303 303 303 302 302 302 302 301 302 302 300 299 299 299 299 299 298 298 297 297 297 297 296 296 295 295 295 295 294 294 294 293 293 293 293 293 293 293 293 295 296 294 292 291 290 290 290 290 290 290 290 291 291 291 290 290 290 290 290 290 290 290 289 288 288 288 287 287 287 287 287 287
306 306 305 305 304 304 303 303 303 302 303 303 303 303 303 303 303 303 302 302 302 302 302 302 301 299 299 298 298 299 299 299 298 297 297 297 296 296 295 295 295 294 294 294 294 294 293 293 293 293 294 293 292 293 294 293 291 291 291 289 289 289 289 289 290 290 290 290 290 290 290 289 290 290 290 289 289 288 287 287 287 286 286 286 286 287 287
306 306 305 305 305 304 304 304 303 303 303 303 303 303 303 302 302 302 303 303 302 301 302 302 301 300 299 299 298 298 298 298 298 297 297 296 296 295 295 294 294 294 294 294 294 294 293 293 293 293 294 294 291 289 291 292 290 289 290 289 289 289 289 289 290 289 289 289 289 289 289 289 289 289 289 289 288 287 286 286 286 285 285 286 286 287 287
307 307 306 306 305 304 304 304 303 303 303 303 302 302 301 301 302 302 303 303 302 302 302 302 300 300 299 299 298 298 298 298 297 297 296 296 295 294 294 294 294 294 294 294 293 293 293 293 294 293 294 294 290 287 289 291 289 288 289 289 288 289 289 289 289 288 288 288 288 288 289 289 288 288 288 286 286 285 286 285 285 285 285 286 286 286 285
306 306 306 306 305 305 304 303 303 304 303 303 303 302 301 301 301 302 303 303 302 303 303 302 302 303 302 300 299 298 298 298 297 296 296 295 294 294 294 294 293 294 294 293 293 293 293 293 293 294 294 293 290 289 289 289 289 288 289 288 288 289 289 288 288 288 287 287 288 288 288 287 287 286 285 284 285 285 285 284 284 285 285 285 285 283 282
303 304 305 305 305 305 304 303 304 304 303 303 303 302 301 301 301 302 304 303 302 304 303 301 303 305 305 305 304 300 297 297 297 296 295 295 294 294 294 293 294 294 294 293 292 292 292 292 293 294 293 291 291 290 289 288 288 288 288 288 288 289 288 288 288 287 286 286 287 287 286 285 284 283 283 284 285 285 284 284 284 285 284 283 282 281 280
302 302 303 303 304 304 304 303 304 303 302 303 303 302 302 302 301 302 303 302 303 304 302 300 301 299 299 301 302 298 296 297 297 296 295 295 295 294 294 295 295 294 293 292 292 292 292 292 293 293 291 290 290 290 288 288 288 288 288 288 288 288 288 288 287 286 285 285 285 285 284 283 282 282 283 284 284 283 283 283 284 283 282 281 280 280 279
303 303 302 303 303 304 304 303 303 303 303 303 302 302 302 302 302 303 303 302 302 302 301 301 299 295 294 297 297 296 297 299 297 295 295 295 295 293 293 295 296 294 293 293 292 291 291 291 292 292 291 290 290 289 288 288 288 288 287 288 287 288 288 288 286 285 284 284 284 283 282 281 282 283 283 283 282 282 283 282 282 281 280 279 279 279 279
303 303 302 303 303 304 303 303 303 303 303 302 302 302 302 302 302 302 302 302 302 301 299 299 296 294 294 296 296 296 297 297 295 294 294 295 295 294 294 294 294 293 293 294 291 289 290 292 292 292 290 289 289 288 288 288 288 287 287 287 287 288 288 287 285 284 283 283 282 281 281 281 282 282 281 281 281 282 281 280 279 279 279 279 279 279 279
304 303 303 303 303 303 304 303 303 303 303 302 302 302 302 303 303 302 301 301 300 299 298 297 295 294 295 295 295 295 295 294 294 294 294 295 296 295 295 294 293 293 295 295 291 289 291 293 292 292 291 289 288 288 288 288 287 287 286 286 286 287 287 285 284 283 282 281 280 280 280 281 281 280 279 280 281 281 279 279 278 278 278 279 279 278 278
304 303 303 303 303 304 304 304 304 304 303 303 303 303 303 303 302 300 302 303 300 296 296 296 295 294 294 294 294 294 294 293 294 293 293 293 293 293 294 295 292 292 296 296 291 289 292 293 292 292 292 289 287 288 288 287 286 286 286 285 286 287 286 284 283 282 280 280 279 279 280 281 280 279 279 280 280 279 278 278 278 278 278 277 277 276 276
304 304 304 304 304 304 304 304 304 304 303 303 304 303 302 302 300 299 301 305 301 295 294 295 294 294 294 293 293 293 293 293 293 292 292 292 292 292 294 294 291 292 297 295 289 288 292 294 293 293 291 288 287 288 287 286 286 286 285 285 286 286 285 283 282 280 279 279 279 279 279 279 278 278 278 279 278 278 278 278 277 277 276 275 275 274 274
304 304 304 304 304 304 304 303 304 304 304 305 305 302 298 299 301 300 300 300 297 294 294 295 293 293 293 293 293 293 292 292 292 292 293 293 292 292 293 294 293 296 296 290 287 290 294 295 294 293 290 287 288 288 287 286 285 285 284 285 285 285 283 282 280 279 278 278 278 278 278 278 277 277 277 278 278 278 277 276 275 274 273 273 273 272 270
304 304 304 304 304 303 303 303 303 303 303 304 305 304 301 301 301 299 297 296 294 293 294 294 293 293 294 293 292 292 292 293 292 292 292 292 291 291 294 297 296 294 291 288 289 294 295 294 292 290 288 288 288 287 286 286 285 284 284 285 284 283 281 280 279 278 278 277 277 277 277 276 276 277 278 278 277 276 275 274 273 271 271 270 270 269 268
304 304 304 304 303 303 304 303 302 302 302 302 303 304 305 303 301 299 299 298 295 293 292 292 291 291 292 292 291 292 292 292 292 292 291 290 291 294 297 296 293 290 289 291 293 294 291 290 290 288 287 288 287 286 285 285 284 283 284 284 282 281 280 278 277 277 277 277 276 276 275 276 277 277 277 276 275 274 273 273 271 269 269 268 268 267 267
304 304 304 304 304 303 303 303 302 301 301 300 300 301 301 300 299 299 298 296 293 292 292 291 290 290 290 291 292 292 291 291 292 292 289 289 292 295 294 291 290 291 291 293 294 294 292 290 289 288 287 287 286 285 285 284 283 283 283 282 281 280 278 277 276 277 276 276 276 275 275 276 276 275 274 274 273 272 271 270 269 268 268 267 267 267 267
305 303 304 305 304 301 301 302 302 299 297 296 296 296 296 295 294 294 294 293 292 292 292 291 290 290 290 291 291 291 291 291 292 290 288 289 294 294 290 289 292 293 292 292 293 294 292 289 288 287 287 286 285 285 284 282 282 282 281 280 279 278 277 276 276 276 275 275 276 276 275 275 274 273 272 273 272 272 271 270 269 268 267 267 267 268 267
304 303 304 306 305 300 299 299 299 297 295 294 294 294 294 293 293 293 292 291 291 291 291 291 291 290 290 290 291 292 290 290 291 290 288 290 293 292 290 291 293 292 291 291 292 291 289 288 287 287 286 285 284 283 282 281 281 281 280 279 277 276 275 275 276 275 275 276 276 276 274 273 272 272 272 272 272 272 271 270 269 268 267 267 267 267 266
304 303 304 304 302 299 298 297 295 294 295 295 294 293 293 292 292 291 291 291 291 292 292 291 290 290 290 290 290 290 290 290 291 290 289 289 291 291 291 293 293 290 289 289 289 288 287 287 287 286 285 284 282 281 280 280 280 280 278 277 276 275 274 275 275 274 275 276 276 274 273 272 272 272 272 272 271 271 270 270 269 269 268 268 267 267 266
304 303 302 300 297 296 296 296 295 295 294 294 293 292 292 292 291 291 291 292 292 292 292 291 291 292 291 290 289 291 290 290 290 289 288 289 291 291 290 292 293 291 288 287 287 287 287 287 285 284 283 282 280 279 279 279 279 278 277 276 274 274 274 274 274 274 275 275 274 273 272 272 272 273 272 271 270 270 270 271 271 271 269 267 266 265 265
303 301 299 297 298 297 296 296 297 297 294 293 293 292 292 292 292 292 293 293 292 292 292 291 291 291 290 291 293 294 291 288 288 288 288 289 290 289 288 290 291 290 287 286 286 287 286 285 283 282 281 279 279 279 279 278 278 277 276 274 273 273 273 274 274 275 274 273 272 272 272 272 272 272 271 270 270 270 271 271 271 270 269 266 265 264 264
302 299 296 295 297 297 296 297 298 297 293 292 292 292 292 292 292 293 293 293 293 292 292 290 289 290 291 293 295 294 290 287 288 290 289 287 287 288 288 289 288 287 286 286 286 285 284 283 281 280 279 278 278 278 278 277 277 275 274 273 272 272 273 274 274 274 273 272 272 272 272 272 272 271 271 270 271 271 271 271 270 268 267 266 264 264 264
299 297 295 294 295 296 295 295 295 294 292 291 292 292 292 292 292 292 292 293 292 292 291 289 290 292 294 292 290 289 289 289 290 290 288 285 285 286 287 287 286 286 286 286 284 283 282 281 280 279 278 277 278 277 277 276 275 274 272 272 272 272 273 273 273 272 272 272 272 272 271 272 271 271 270 271 271 270 269 269 268 268 267 266 264 264 265
Wind_Speed
6 6 6 7 9 11 11 10 10 10 9 9 8 8 8 5 4 5 5 3 3 1 2 3 3 1 1 1 1 2 1 1 1 1 2 1 0 0 1 2 2 2 2 1 2 3 2 3 3 3 3 2 2 1 2 2 2 2 0 1 0 1 2 1 4 5 3 3 3 3 2 3 1 1 1 3 2 3 5 5 3 2 3 2 1 6 6
7 6 7 8 9 11 12 11 10 9 9 9 9 8 9 8 7 5 4 3 3 3 1 1 3 3 1 2 1 2 2 2 2 1 3 2 1 1 1 2 2 1 1 1 2 3 1 2 2 1 2 2 2 0 2 2 1 1 0 1 1 1 1 1 3 7 6 5 5 5 4 1 2 3 1 2 4 5 3 2 2 2 5 7 4 9 8
7 7 8 9 10 12 12 11 9 8 8 9 9 9 9 8 6 4 3 3 2 2 2 2 2 1 1 2 2 1 1 2 3 2 2 3 3 1 1 1 2 1 1 1 1 1 0 2 1 2 1 3 1 2 1 1 1 2 1 1 1 1 1 1 0 3 5 6 6 4 2 1 2 2 2 3 4 5 3 1 2 3 4 6 5 9 11
8 8 8 10 11 12 12 11 9 8 8 10 10 10 9 5 2 3 3 2 0 1 1 2 2 2 1 1 2 0 0 2 3 3 2 2 3 2 1 2 2 1 1 0 1 2 0 1 1 1 2 3 2 2 1 1 1 2 2 2 2 1 1 2 5 6 7 8 7 2 1 3 6 6 5 5 4 5 4 3 2 4 2 2 7 10 14
9 9 9 11 12 13 12 11 9 8 8 9 11 10 7 2 1 2 2 2 2 3 3 2 2 2 3 1 1 1 2 2 1 3 3 2 3 2 1 2 2 2 2 1 1 2 1 2 1 2 3 3 2 1 1 1 1 2 2 1 3 3 2 4 6 8 10 11 10 5 2 5 10 10 8 5 5 5 6 6 10 4 2 6 10 7 9
9 10 11 12 13 14 12 9 8 8 7 9 10 8 6 2 2 2 1 2 1 2 3 3 3 3 2 1 1 0 1 2 2 3 2 1 3 2 1 2 4 5 4 2 0 1 2 1 3 2 1 3 3 2 1 1 1 2 2 1 3 4 3 4 3 6 11 11 11 9 6 7 8 9 11 7 6 8 10 13 14 5 2 12 15 11 11
10 11 12 14 14 13 10 8 8 7 7 9 9 7 4 3 2 2 2 3 2 1 2 1 3 3 2 1 1 1 2 4 4 2 1 1 2 3 2 5 4 4 3 2 1 2 1 2 4 2 1 2 1 2 1 1 1 2 2 1 2 4 3 3 2 5 11 11 11 9 6 6 6 8 10 8 8 11 11 13 13 7 9 16 18 17 16
11 13 13 13 12 10 9 7 7 7 8 9 9 7 4 3 3 2 2 2 1 1 1 1 3 1 1 0 2 2 4 5 4 3 3 2 1 3 3 4 2 3 3 3 3 6 5 2 3 3 2 2 2 2 2 2 2 2 1 1 1 2 2 1 3 3 9 9 7 5 3 5 7 9 10 7 6 7 7 8 8 6 9 13 13 13 12
13 13 12 11 10 9 8 8 8 8 9 9 9 7 5 4 4 3 1 1 0 1 0 2 3 1 1 2 2 2 4 5 3 2 4 4 3 4 5 3 2 2 2 4 7 6 4 3 4 4 4 4 4 3 3 5 4 1 1 0 1 2 2 2 5 3 7 4 5 7 7 6 5 8 9 5 2 3 4 5 6 6 6 9 8 6 6
12 11 10 9 9 9 9 9 10 10 9 9 9 8 6 5 5 4 2 2 1 0 1 2 2 1 2 3 3 2 3 4 2 1 3 3 2 4 5 4 2 1 2 5 7 5 3 4 5 3 5 6 5 4 5 6 5 4 3 1 1 3 2 1 3 1 6 4 6 8 9 6 3 4 4 2 3 3 3 4 6 7 5 5 5 5 7
10 9 9 9 9 10 10 10 10 10 9 9 9 8 7 5 4 4 2 2 2 1 1 1 1 2 3 3 3 2 2 3 3 2 2 1 0 1 3 3 1 1 3 4 4 4 4 4 3 2 2 2 2 3 5 5 3 4 6 3 0 3 4 1 1 1 5 8 8 7 6 4 3 3 1 2 4 4 3 8 11 6 4 4 5 6 9
8 8 8 8 8 9 9 8 9 9 8 9 8 8 7 6 5 4 2 1 2 1 0 3 4 3 3 3 3 3 2 2 4 3 3 2 1 1 3 4 2 2 2 2 3 3 3 3 2 1 2 4 5 6 6 5 4 1 5 5 3 4 4 1 1 1 4 5 7 6 3 4 6 3 2 4 7 6 6 9 11 5 3 4 7 8 11
7 7 8 9 9 9 9 9 9 8 7 8 7 7 7 6 6 5 3 2 3 3 1 4 5 5 6 5 4 3 2 1 2 3 3 3 2 2 3 3 3 2 2 2 2 2 2 2 1 1 2 4 5 6 7 6 6 3 1 3 4 5 4 2 2 1 2 3 4 2 5 6 3 1 1 3 3 2 3 7 8 4 2 4 9 12 15
7 8 8 9 9 9 9 9 8 8 7 7 7 7 7 7 6 6 5 2 3 4 2 4 5 4 5 5 3 1 1 1 1 2 3 3 3 2 2 2 3 3 2 2 3 2 1 2 4 3 3 3 3 3 3 3 4 4 4 2 3 6 4 1 1 1 1 0 1 3 6 7 5 3 4 4 3 4 4 5 6 4 0 9 12 13 18
6 6 7 7 6 7 7 7 7 7 6 7 7 6 7 7 7 7 6 4 2 3 3 2 3 3 3 3 3 1 2 1 1 2 3 3 2 2 2 2 2 1 1 2 2 3 2 2 3 3 4 3 2 3 1 1 2 4 4 2 4 4 2 3 2 1 2 1 3 4 5 3 2 4 7 6 7 7 4 2 5 4 6 18 16 13 18
6 6 6 6 6 6 6 6 6 6 6 6 6 6 6 6 6 6 6 5 2 2 3 3 3 3 1 1 2 1 1 1 0 2 4 2 1 1 1 1 1 1 1 2 3 4 3 1 2 1 2 2 1 2 2 1 2 3 4 4 6 5 3 4 2 1 2 2 1 2 2 4 3 5 11 13 12 6 1 1 5 4 14 26 20 16 21
6 6 6 7 7 6 6 6 6 6 5 5 5 5 5 6 6 6 7 6 4 3 4 3 3 3 1 1 0 2 2 1 1 1 2 3 1 1 1 2 2 2 1 2 3 4 4 2 2 1 3 3 2 1 3 1 2 4 3 4 5 5 4 3 1 2 1 2 1 2 4 5 3 6 16 19 10 0 3 5 6 8 22 30 24 21 24
6 6 6 6 6 6 6 5 5 5 5 4 4 4 4 5 5 6 7 8 5 3 3 3 2 3 2 1 2 2 2 1 1 1 1 2 2 1 2 3 2 1 0 1 2 3 2 1 1 1 3 3 0 1 2 1 2 3 1 2 2 3 2 1 1 2 2 3 3 3 4 4 4 9 18 19 9 2 4 6 10 18 30 33 29 28 27
6 6 6 6 6 6 6 5 5 5 5 5 4 4 4 4 4 5 6 8 6 3 3 3 3 2 2 2 1 1 2 1 0 0 1 3 1 2 2 2 2 0 1 2 2 2 1 2 1 2 1 4 2 1 1 1 2 0 1 1 2 1 1 1 1 2 1 3 3 4 5 3 5 14 18 16 9 2 4 13 21 27 31 32 32 31 29
6 6 6 6 6 6 6 6 6 6 6 6 5 4 4 3 3 3 5 6 4 3 3 3 3 2 2 1 1 0 1 1 1 2 2 1 2 3 2 2 1 1 1 2 1 1 1 2 2 1 2 3 2 1 1 3 2 1 1 1 1 1 1 2 2 2 1 0 0 3 3 2 11 17 12 9 6 8 15 24 30 30 30 31 32 31 30
6 6 6 7 6 6 6 6 7 7 7 7 7 5 5 3 2 0 2 3 3 3 1 2 1 1 1 0 0 0 1 1 2 2 2 2 3 4 1 2 3 2 1 1 1 1 1 2 2 1 2 2 1 0 1 2 3 2 2 2 0 1 1 2 3 2 2 1 1 2 5 12 19 16 8 10 15 17 21 26 30 32 34 32 32 34 35
5 6 6 6 6 6 6 7 7 8 8 8 7 6 6 5 3 2 1 1 1 1 1 3 3 2 2 1 2 1 1 1 1 1 1 2 4 5 3 3 2 1 2 1 1 1 1 2 1 0 1 1 1 1 1 1 2 4 1 2 1 1 1 1 3 3 1 4 8 9 14 22 25 21 20 25 25 22 26 29 31 34 36 34 34 37 40
5 5 5 6 6 5 6 7 7 8 7 7 6 5 5 4 4 4 3 3 4 5 6 5 4 4 4 3 2 1 1 1 1 1 2 2 3 5 5 3 2 3 2 1 1 1 2 2 1 1 1 2 1 1 1 2 1 2 2 2 1 1 2 1 2 3 6 7 10 14 18 24 30 33 32 29 27 28 32 34 35 37 39 39 39 40 42
5 5 5 5 5 5 6 7 7 7 7 6 5 5 5 5 5 5 3 1 2 4 5 5 5 4 4 4 3 2 2 2 2 2 2 2 1 1 3 3 2 2 2 2 2 2 2 2 1 2 1 2 2 1 1 1 0 1 2 3 3 3 6 4 2 3 5 5 8 14 19 26 34 38 33 27 29 34 35 36 39 41 42 42 43 43 44
6 5 5 5 5 5 6 6 6 6 6 6 6 7 7 7 7 6 4 1 1 1 2 3 4 3 3 3 3 3 3 3 3 3 3 3 3 3 4 4 3 3 3 3 3 2 2 1 2 3 2 1 1 1 1 1 1 2 3 4 4 6 9 7 2 2 4 8 14 22 28 29 28 26 26 29 35 39 39 39 40 40 41 42 43 43 43
6 6 5 5 5 5 5 4 4 6 6 5 5 7 9 8 7 7 6 3 1 1 2 2 3 3 3 3 3 3 3 4 4 4 4 4 4 5 5 4 4 5 4 4 3 2 2 2 2 3 2 1 1 1 2 2 3 3 4 5 6 8 9 7 4 5 6 9 15 24 27 23 19 20 26 33 37 41 43 42 41 40 41 43 45 45 44
7 6 6 6 6 5 5 5 6 7 7 6 5 5 8 8 7 7 7 4 1 0 1 3 4 3 2 2 3 3 3 4 5 5 6 6 6 6 5 4 4 4 3 2 2 2 2 2 2 1 1 1 2 2 2 2 3 4 3 8 11 8 7 6 6 6 6 8 15 20 17 15 22 31 36 38 40 42 43 43 43 44 44 45 47 49 49
7 7 7 6 6 6 6 6 7 8 8 7 5 3 5 7 8 7 6 5 3 2 1 6 7 4 3 3 3 3 3 5 7 7 7 7 6 6 5 4 3 3 2 1 1 3 2 2 1 1 1 2 2 2 2 2 4 4 4 11 16 14 12 11 8 7 10 17 25 26 20 20 30 39 42 41 41 41 42 44 47 47 47 46 46 48 51
8 7 7 6 6 6 6 7 7 8 9 8 6 2 1 5 8 8 6 5 4 3 4 8 6 3 2 2 2 3 4 7 9 8 7 7 7 6 5 4 3 2 1 0 2 3 3 3 3 2 2 2 1 0 2 3 3 3 8 17 22 21 21 22 18 16 19 25 31 32 29 30 37 41 41 39 37 38 44 49 50 49 49 49 48 48 48
8 7 7 7 6 6 7 7 7 8 9 8 7 4 1 3 6 8 6 5 4 3 2 4 3 1 2 2 2 3 6 10 10 8 7 8 7 6 5 5 3 2 1 1 2 3 3 3 3 3 3 3 1 2 2 3 1 2 13 24 26 24 25 27 25 23 24 29 34 35 35 36 39 39 37 35 35 39 45 47 47 48 49 49 49 49 49
7 7 6 6 6 6 6 7 7 7 8 7 7 5 2 2 5 7 7 5 4 2 1 2 3 3 2 2 2 3 9 13 10 8 10 9 7 7 6 5 4 2 2 3 4 4 4 3 3 3 3 5 5 4 3 3 1 5 18 29 29 26 27 28 27 25 26 31 36 38 37 36 34 33 35 38 40 42 44 45 46 48 48 48 48 49 48
7 7 7 7 7 7 6 6 7 7 6 6 6 5 4 4 5 7 7 5 4 2 0 1 2 1 0 2 1 4 12 14 10 10 11 9 7 7 6 4 4 4 4 5 5 4 4 4 4 3 4 6 5 4 3 5 4 10 23 30 28 27 28 28 27 26 26 30 33 34 36 38 37 36 38 41 44 45 44 45 49 50 49 48 48 45 42
8 8 8 8 8 8 6 6 6 6 6 6 6 5 5 5 5 7 7 4 3 3 1 1 1 1 1 2 1 5 13 14 10 10 10 8 7 7 5 4 4 5 4 4 3 3 3 3 3 4 7 8 6 4 4 6 9 17 26 28 27 28 29 27 26 27 30 33 33 30 32 38 42 42 42 45 47 44 42 44 49 52 50 47 44 44 47
8 8 8 8 9 8 7 6 5 5 6 6 5 5 6 5 5 8 7 3 2 4 5 4 2 0 2 2 1 5 14 15 11 10 9 6 6 7 4 2 3 4 5 5 4 3 4 4 3 3 5 7 7 5 3 8 18 25 28 28 29 31 30 28 28 30 33 36 35 32 33 36 39 42 46 47 44 41 43 47 49 47 45 45 46 50 56
10 9 9 9 8 8 7 6 4 4 6 7 6 6 6 4 5 8 9 6 3 3 4 6 5 2 3 4 1 6 15 16 11 11 9 5 5 6 4 2 3 3 4 4 4 3 3 4 4 2 2 5 5 4 4 13 22 27 28 30 32 32 30 31 34 37 39 38 36 35 37 40 42 46 48 44 39 41 48 50 45 41 43 47 52 55 57
10 9 9 8 8 7 6 4 3 5 7 8 6 6 4 3 5 8 10 11 10 6 4 5 5 3 3 2 3 9 16 14 11 11 8 4 4 5 4 3 2 3 3 4 4 4 3 4 4 2 3 4 3 4 9 17 23 26 28 30 31 30 28 29 34 41 44 42 39 39 44 47 47 45 40 37 39 45 48 45 41 43 48 53 56 57 58
10 9 8 7 6 5 4 3 4 7 8 7 4 3 4 5 5 5 7 9 11 11 10 7 4 3 4 2 5 12 14 10 10 9 6 5 5 4 3 3 2 1 3 4 3 3 3 4 5 3 3 4 3 5 15 22 23 26 29 31 32 32 28 28 35 42 46 46 47 50 55 56 52 46 41 42 47 47 42 39 42 45 49 52 54 55 58
10 9 7 6 4 3 3 4 6 6 5 3 3 4 4 3 3 3 4 5 6 10 13 10 5 5 6 3 7 12 11 8 8 7 5 6 7 3 3 4 2 2 2 2 2 3 3 3 4 4 4 4 4 10 20 26 26 27 29 32 35 32 28 30 37 42 42 43 46 50 54 53 52 52 53 55 54 48 43 43 46 48 49 51 51 53 55
10 8 6 5 4 3 4 5 4 4 4 4 4 3 2 3 2 2 4 5 5 7 12 10 6 8 10 6 6 10 10 8 6 4 3 5 5 2 2 3 2 2 2 1 1 4 3 2 2 2 2 3 10 18 26 32 32 31 32 36 35 30 28 33 39 40 39 39 39 39 39 38 41 47 52 52 51 50 51 53 53 52 52 53 52 51 50
10 7 5 4 4 5 5 5 4 3 4 3 3 3 3 5 5 3 4 5 4 6 9 8 5 8 12 9 5 7 10 9 5 2 2 4 3 3 2 2 2 3 2 0 2 4 1 0 3 3 1 7 17 24 31 35 34 34 37 39 35 29 31 37 42 44 44 43 38 34 31 32 36 41 42 42 45 50 53 56 56 56 56 55 53 50 48
9 6 4 4 4 5 7 7 5 3 3 3 3 3 3 4 5 5 5 4 2 4 8 10 8 9 14 12 7 6 8 8 5 2 2 3 4 4 2 1 2 2 2 1 5 4 3 2 3 1 3 11 21 28 35 38 38 40 43 40 33 32 37 44 48 49 45 40 36 34 34 34 37 37 36 38 43 45 46 51 55 57 56 54 50 50 52
7 4 4 5 4 4 5 7 7 4 3 3 3 2 2 2 3 5 6 4 2 4 9 10 10 12 15 14 9 7 7 8 6 3 1 3 5 3 1 1 3 3 1 3 5 3 4 3 2 3 7 17 26 33 40 41 41 43 42 36 33 37 43 49 52 49 41 36 36 37 37 37 38 37 36 38 41 41 43 48 53 54 52 49 47 51 55
5 3 3 3 5 5 4 6 8 6 3 3 3 2 2 3 3 2 3 3 3 6 9 11 13 14 12 11 9 7 5 6 6 3 1 3 5 3 2 2 3 1 1 3 3 4 3 0 2 4 14 24 31 38 42 42 43 43 38 32 34 42 48 50 49 44 38 36 37 38 38 39 39 37 35 36 40 44 48 49 47 46 46 46 48 52 53
4 3 1 1 4 6 3 4 7 7 3 2 2 1 2 4 3 1 2 5 6 7 10 14 15 12 9 9 10 7 4 5 6 4 3 4 4 2 2 2 2 2 2 3 3 2 1 2 3 10 21 29 35 40 42 41 42 40 35 35 41 47 49 49 46 41 38 38 39 40 41 41 38 36 37 40 45 48 48 46 45 45 44 45 48 51 51
3 4 2 1 5 8 5 2 5 6 3 1 0 2 2 1 2 2 3 7 9 10 13 16 15 12 9 9 8 4 3 5 5 3 3 4 3 2 1 1 1 2 3 2 2 3 2 3 8 18 27 33 38 40 40 39 38 36 36 43 49 50 49 47 43 38 38 39 40 42 44 41 38 40 45 47 46 45 43 43 46 47 46 47 50 52 52
4 5 4 2 4 7 5 1 2 3 2 1 2 2 1 2 4 5 7 9 11 13 15 16 13 9 8 7 5 4 5 6 3 3 4 3 1 1 1 1 2 4 4 2 3 2 3 5 12 22 31 37 39 39 39 38 35 35 40 47 50 49 47 44 39 36 39 40 39 40 42 42 43 47 49 47 45 44 43 43 45 45 45 48 51 52 53
4 5 5 4 2 4 4 3 2 2 3 3 4 4 4 5 5 6 9 11 12 14 15 13 9 5 5 5 4 3 6 6 3 3 5 2 1 1 3 3 2 2 1 0 3 4 4 9 20 29 35 38 39 40 39 37 35 38 43 47 48 47 44 38 35 37 41 40 38 39 44 48 49 48 47 47 47 47 45 45 45 45 45 47 50 51 53
4 5 5 3 1 2 3 4 5 6 6 4 3 5 8 8 7 8 10 11 12 12 12 9 5 2 3 4 2 2 6 7 4 3 4 3 1 2 4 3 2 2 2 3 3 5 8 18 29 35 36 37 39 40 38 35 36 41 45 47 46 44 39 35 36 39 40 38 38 43 48 50 49 47 47 49 49 47 46 46 47 47 47 48 51 52 54
8 7 6 5 3 3 5 7 7 6 7 5 5 8 10 10 9 9 9 10 11 10 8 6 4 2 2 4 2 2 4 6 3 2 4 4 2 1 1 1 3 3 2 3 5 11 19 29 35 36 35 37 39 38 34 34 38 43 45 44 42 37 34 35 36 36 36 38 42 46 47 48 47 47 48 49 49 48 47 47 47 47 48 49 51 52 53
12 10 9 7 5 3 4 4 3 3 6 8 10 12 13 12 11 11 9 9 10 8 5 4 5 3 2 3 3 2 3 4 3 2 3 2 1 1 1 1 2 3 5 8 13 20 28 34 37 37 38 39 38 34 32 34 40 43 43 40 37 34 34 35 34 34 37 43 45 44 45 46 46 46 48 48 48 48 47 47 47 48 49 49 50 51 53
9 9 10 9 7 4 4 4 3 3 6 10 12 13 13 12 11 10 9 9 9 6 4 4 4 3 3 4 3 1 2 3 3 3 2 0 1 2 0 2 4 6 12 17 22 27 33 36 37 39 40 39 36 32 32 35 40 41 38 36 35 34 34 33 32 36 41 44 43 42 44 45 44 44 46 47 47 48 49 49 49 49 49 50 51 51 52
7 7 8 9 9 8 7 5 5 5 6 8 9 10 10 10 9 8 8 9 9 7 5 4 4 4 3 2 1 1 1 2 3 2 1 1 2 2 1 6 10 14 19 23 27 32 35 37 38 37 35 33 31 31 34 38 40 37 34 33 34 33 31 31 35 40 43 42 42 43 44 44 44 45 46 47 49 50 52 52 52 51 50 51 51 51 51
Wind_Direction
321 312 310 316 328 334 330 328 328 327 329 328 327 333 337 334 314 309 317 295 226 192 17 358 2 48 182 264 216 208 229 178 172 210 213 240 15 309 282 191 192 216 202 157 171 200 210 183 193 229 227 242 280 205 147 140 150 119 36 284 155 119 89 18 283 286 312 328 1 36 58 92 113 261 146 139 155 139 159 192 193 210 226 139 97 276 277
312 308 308 313 325 331 329 328 328 329 333 334 333 335 333 327 312 298 307 303 237 201 190 306 301 295 315 5 303 234 231 206 195 222 225 219 184 168 238 206 200 216 150 114 186 205 208 213 217 214 217 250 324 131 154 146 122 77 117 114 85 235 233 53 328 322 334 342 353 352 348 41 215 253 230 163 128 99 117 171 121 267 225 165 181 267 266
311 309 308 311 320 327 328 326 323 326 337 341 341 339 337 333 318 294 298 311 240 194 181 162 183 246 310 342 305 261 262 233 219 226 236 219 193 181 271 195 162 126 93 75 249 222 258 269 295 21 259 257 358 60 155 169 41 29 68 97 97 219 219 119 285 297 300 303 311 308 297 293 257 235 219 208 152 138 173 168 124 246 234 163 179 259 275
311 308 306 308 315 323 324 322 320 324 335 344 346 342 340 345 331 318 326 330 30 127 140 135 139 155 171 300 303 186 251 265 238 226 235 226 209 217 245 159 125 63 112 128 279 267 349 22 356 347 264 266 349 51 77 51 42 59 71 59 67 88 262 209 193 209 238 259 267 250 84 297 282 273 239 207 189 173 135 95 205 221 221 216 226 251 281
308 305 304 308 313 318 319 319 320 319 326 340 344 341 343 352 276 312 334 334 13 69 68 56 87 150 172 210 253 217 261 309 297 217 221 229 219 223 228 177 171 179 186 189 259 262 22 49 268 247 238 260 318 29 134 62 53 95 92 58 85 86 300 246 203 223 246 261 273 288 323 274 269 274 266 222 185 169 151 203 238 221 78 279 262 251 270
304 302 304 307 310 314 317 317 316 314 321 333 338 340 344 340 274 275 259 272 313 64 15 9 87 121 143 171 162 235 280 296 251 213 216 241 212 206 292 254 214 191 180 149 176 282 348 306 244 250 265 291 341 14 53 76 76 107 104 84 112 122 251 245 191 250 267 270 277 276 268 262 255 263 271 254 192 182 193 228 244 220 200 266 275 279 278
301 302 304 307 310 313 315 312 308 309 317 326 330 329 323 310 289 269 234 242 225 204 304 330 123 114 77 115 186 181 203 241 245 196 126 335 235 185 236 271 250 207 183 133 153 233 264 294 270 228 190 273 314 340 318 121 89 82 96 29 115 141 238 241 153 285 280 270 273 271 256 265 270 266 268 256 220 210 214 240 255 245 242 260 275 286 286
301 303 306 308 309 309 309 306 305 309 314 318 321 317 304 290 286 269 231 238 204 127 345 98 123 89 38 188 241 184 182 226 253 189 173 242 261 172 213 266 260 198 179 160 207 215 181 200 256 188 167 276 220 215 227 161 91 24 74 34 89 160 261 266 103 316 284 271 283 290 253 258 277 282 278 264 246 237 228 246 262 256 253 261 276 287 285
303 305 306 306 305 305 306 306 305 307 310 313 314 312 299 282 284 289 250 226 132 52 320 109 107 22 299 208 232 209 202 218 231 225 210 206 197 187 191 187 106 94 154 195 238 246 202 216 246 203 203 241 220 216 212 159 132 107 183 79 107 157 269 1 64 348 283 287 345 322 302 291 287 297 296 275 213 221 220 227 229 219 247 278 293 293 282
303 303 302 301 301 301 303 304 304 304 306 307 306 304 301 290 284 280 260 266 283 193 101 72 71 277 236 198 203 238 243 216 174 284 259 202 200 224 199 164 117 66 197 220 251 277 267 268 277 253 242 245 236 237 214 172 152 163 166 126 111 146 150 15 54 314 274 310 343 313 314 334 327 309 303 241 218 253 256 268 253 219 224 284 292 278 289
300 300 301 301 303 304 304 304 304 303 301 298 296 295 294 289 284 274 251 278 273 182 91 34 188 228 233 216 221 238 240 209 183 207 274 236 117 250 207 175 172 234 227 239 277 302 289 284 283 265 261 242 204 185 173 152 129 159 158 138 153 134 121 137 138 210 273 302 325 326 344 348 267 248 166 225 275 273 246 283 289 258 196 232 264 282 301
303 307 309 311 311 310 311 309 305 303 299 292 288 288 282 271 273 267 212 221 256 206 33 254 222 225 253 232 229 246 246 235 219 219 261 290 329 262 213 175 164 240 261 291 315 307 292 286 259 212 78 90 101 99 95 74 47 125 159 137 128 127 113 145 178 173 268 307 354 359 328 250 245 239 195 238 252 223 216 264 282 265 205 264 292 300 305
313 312 312 312 310 308 307 305 302 299 297 291 283 278 272 261 259 254 220 219 246 206 202 271 253 253 266 254 246 263 259 237 238 233 248 270 284 263 235 196 194 251 290 317 317 307 297 313 323 306 35 63 72 69 58 37 25 34 81 105 125 137 138 160 174 185 275 340 27 342 275 286 310 341 274 277 277 265 285 291 277 233 195 325 322 320 322
313 315 318 316 313 311 307 303 300 294 291 289 282 274 268 257 248 246 237 244 259 225 225 296 283 262 266 258 231 225 260 237 239 245 254 274 290 284 258 236 241 256 275 307 330 344 330 10 21 347 333 15 22 10 20 17 24 34 14 351 138 138 140 166 254 227 175 253 277 273 303 331 8 17 324 312 318 308 302 304 281 222 85 347 336 329 329
332 335 335 331 327 325 319 314 309 300 292 288 282 276 270 259 248 247 244 245 273 254 229 251 279 287 285 245 193 174 329 315 271 275 272 265 277 296 280 248 237 234 260 329 16 52 43 19 30 354 337 2 347 313 324 10 1 24 26 43 98 105 138 174 213 261 91 69 305 328 343 317 285 316 312 307 306 287 232 240 270 240 350 348 342 331 327
347 342 340 339 338 336 332 328 323 314 305 298 290 281 273 264 254 249 245 235 238 282 249 239 270 293 299 175 181 221 279 268 275 324 324 317 318 339 292 210 160 143 95 27 47 73 56 35 145 144 295 254 234 290 303 317 325 1 28 56 65 44 37 109 119 333 48 95 261 286 266 247 246 322 329 331 324 300 195 300 271 268 343 344 338 326 324
345 346 349 349 346 343 341 337 333 328 318 308 300 288 277 271 261 251 244 235 232 270 279 275 277 269 227 109 264 246 224 198 147 16 343 326 326 24 103 153 138 133 101 25 32 70 67 65 132 166 270 237 157 294 307 359 334 321 351 42 51 26 13 59 89 271 155 133 210 241 243 255 271 321 330 332 324 227 56 329 285 316 336 335 331 323 321
357 358 355 354 354 355 356 353 351 349 339 329 320 305 290 280 267 255 243 235 236 264 284 287 283 266 262 292 288 239 190 163 85 65 336 321 328 73 148 163 147 130 170 46 53 71 79 183 168 168 259 265 52 314 294 338 298 294 339 85 53 24 11 50 137 194 190 184 222 270 267 258 291 324 337 342 341 57 38 315 301 324 327 325 325 321 318
3 2 1 8 11 14 20 22 21 22 17 8 351 328 311 291 270 256 240 233 237 261 281 289 289 285 293 294 287 224 189 199 326 79 50 1 330 158 135 146 166 168 39 94 109 100 106 258 239 136 221 289 321 120 240 274 250 260 63 26 1 44 26 13 129 169 197 170 185 300 285 242 336 339 347 4 11 348 305 305 311 319 319 318 321 318 317
12 16 18 22 25 28 37 42 44 45 42 32 19 1 342 317 284 257 232 224 234 266 294 304 290 280 299 292 269 205 210 274 297 186 143 347 243 164 82 3 232 193 41 60 104 152 156 242 265 164 189 263 262 132 301 302 291 206 199 248 276 189 227 315 231 193 3 34 344 329 268 267 351 349 356 23 6 297 300 310 313 316 318 318 318 316 317
25 29 31 31 34 38 43 50 53 54 52 47 40 31 20 11 357 264 209 221 251 268 299 355 339 309 333 322 132 47 288 307 302 250 222 250 209 167 91 295 217 198 211 141 156 261 186 190 236 224 201 246 288 161 256 332 344 307 205 168 224 197 145 335 265 207 86 41 266 278 274 307 337 347 335 320 315 308 314 318 316 317 320 320 316 316 318
35 36 38 37 37 41 47 53 55 52 52 51 47 42 38 37 42 60 111 219 276 243 104 73 67 68 59 89 113 61 1 347 312 272 279 256 215 211 242 258 216 242 255 132 87 296 206 175 186 324 253 268 348 322 192 97 343 304 317 75 37 218 178 275 243 222 223 247 252 274 297 312 324 327 317 314 316 320 325 323 317 316 318 318 317 316 317
42 40 40 40 42 51 58 60 57 52 49 48 47 49 51 51 55 69 94 102 85 86 86 77 77 78 66 75 109 86 35 44 19 313 315 295 237 235 255 271 278 270 252 221 276 238 169 165 151 96 241 226 124 62 21 38 306 279 11 26 280 269 348 303 220 272 294 274 272 291 309 320 322 319 317 316 318 322 326 324 320 317 317 317 316 314 314
43 41 41 42 50 62 67 65 60 54 49 47 49 55 58 59 58 60 75 115 91 89 85 70 68 77 72 76 92 78 53 50 22 355 334 318 299 282 290 286 275 271 264 262 272 249 160 168 133 100 226 229 123 110 10 31 176 197 36 359 296 336 1 341 265 312 320 305 306 312 317 320 318 314 314 316 318 321 323 322 319 317 316 316 314 312 312
41 41 43 46 52 59 65 66 57 44 38 39 45 50 52 50 44 37 30 345 282 140 118 79 67 79 83 83 86 69 49 36 12 2 355 332 319 321 315 303 285 281 282 279 276 256 205 192 135 131 190 258 59 187 209 80 108 156 68 24 318 328 348 341 297 307 301 281 293 308 314 314 312 309 312 317 319 320 320 320 318 315 314 313 312 312 311
42 43 45 46 48 50 56 55 34 18 13 17 32 46 46 41 34 28 21 7 330 134 121 108 104 106 95 81 78 63 38 20 0 354 357 348 333 326 319 311 303 291 280 281 281 246 190 145 119 137 193 245 84 152 179 117 103 115 73 26 338 320 331 333 307 297 286 276 298 317 321 316 312 312 314 317 319 319 319 319 318 317 316 316 316 315 314
44 45 46 45 43 41 38 29 16 8 5 3 13 39 42 37 32 23 19 22 23 313 92 128 133 122 99 84 73 52 23 6 357 349 346 343 338 335 328 319 316 308 286 280 267 204 156 106 108 150 199 179 102 86 129 130 97 97 61 12 3 350 334 333 331 324 312 306 319 328 326 311 309 315 317 319 321 321 319 319 320 320 320 320 319 319 318
42 41 41 40 36 31 26 19 12 7 3 356 351 19 39 32 28 20 15 25 23 344 122 137 131 108 94 104 75 40 18 2 353 347 343 343 343 343 341 338 334 325 310 287 187 155 127 106 130 136 120 126 105 66 85 80 63 80 42 10 8 1 341 334 330 311 303 308 316 321 317 303 306 313 318 320 322 322 321 321 322 321 322 322 321 320 319
37 34 34 30 24 21 16 11 8 6 2 357 352 344 348 12 19 18 11 17 26 37 106 128 121 74 74 105 64 33 20 1 351 348 349 352 353 353 354 356 351 344 351 92 145 126 99 109 125 95 66 88 139 110 59 49 65 75 24 6 1 354 345 340 331 314 306 311 318 322 318 309 310 315 317 319 323 324 322 322 322 322 323 323 322 319 318
28 25 23 15 11 11 6 3 3 1 0 1 1 354 326 349 8 11 8 11 20 24 103 128 113 72 91 84 63 41 14 360 355 359 5 4 5 8 11 11 6 6 37 85 107 95 88 98 102 87 64 46 80 134 88 47 95 41 5 357 351 347 346 343 336 326 318 318 322 321 315 311 313 316 317 318 322 324 321 320 321 322 322 322 321 319 318
21 18 12 4 360 358 356 358 360 359 2 6 7 11 20 1 358 3 3 3 4 359 55 95 99 133 134 70 61 25 6 1 3 10 9 8 14 20 19 17 16 29 79 91 91 90 86 77 74 84 66 42 60 112 101 52 44 338 348 348 345 343 342 339 336 332 327 325 324 319 315 315 317 318 318 320 323 325 323 321 322 322 321 321 320 319 318
14 8 2 356 350 347 346 350 355 358 1 4 8 17 18 356 351 358 358 357 2 3 157 97 75 115 50 3 12 9 5 5 6 7 7 11 20 20 19 25 40 70 89 85 81 75 60 59 69 71 54 49 68 107 88 56 32 337 338 340 340 340 340 337 336 335 332 330 328 322 319 322 324 323 321 321 323 325 324 323 323 324 324 322 322 322 324
0 355 352 347 341 339 335 336 347 356 359 357 359 5 3 354 353 356 354 0 27 30 40 78 59 40 353 6 40 13 5 2 360 1 5 11 14 14 24 47 63 80 76 58 66 76 61 67 84 68 53 52 62 86 73 38 359 337 336 338 337 337 338 336 336 337 335 333 331 324 317 318 322 322 321 321 323 324 324 325 326 326 325 325 327 329 330
341 339 337 332 331 331 327 325 333 345 351 350 347 349 354 357 4 6 6 16 67 57 56 57 59 11 337 357 89 16 1 357 355 358 1 3 5 12 31 68 69 71 61 49 61 76 63 59 69 66 50 40 43 64 55 358 345 340 339 339 339 338 337 336 337 338 336 333 329 323 319 319 321 322 322 323 325 326 327 328 328 327 327 328 330 330 330
330 326 324 323 323 323 321 319 315 327 344 347 341 342 352 10 32 33 39 51 64 74 58 45 54 65 354 345 353 354 353 353 354 354 352 350 1 11 29 69 56 50 54 54 57 57 53 51 47 36 11 16 36 63 7 338 340 342 341 340 341 340 337 336 337 337 336 334 330 326 327 327 326 325 326 327 329 329 329 330 331 330 331 331 330 330 332
331 327 323 322 322 321 322 317 302 319 335 337 335 342 5 69 76 66 65 61 59 67 65 50 65 70 11 329 304 334 344 348 349 346 345 348 356 4 28 59 51 41 46 52 52 45 43 51 52 32 9 25 63 56 3 346 341 341 341 340 340 338 334 334 336 336 335 335 334 332 331 331 330 329 329 329 330 331 331 332 333 334 334 332 330 332 334
340 336 331 329 330 332 335 328 317 324 331 333 342 36 80 101 99 85 69 59 58 59 59 67 83 36 5 307 304 331 339 340 340 344 356 5 354 358 44 53 46 56 41 34 35 32 37 59 76 77 56 66 85 25 4 356 348 343 342 341 340 336 333 336 340 340 339 339 338 337 336 334 334 334 333 332 332 333 334 335 335 334 334 332 331 331 332
348 345 342 345 353 1 356 341 333 336 348 17 90 99 92 91 99 81 42 42 52 48 47 59 74 28 11 338 324 341 346 336 337 352 11 4 354 4 52 41 51 91 35 1 1 19 26 47 74 95 103 92 58 8 357 355 351 347 345 344 341 338 337 340 344 346 344 342 339 337 335 334 334 335 333 332 332 333 334 335 335 333 333 332 330 329 330
352 352 356 8 21 25 11 360 4 32 62 84 103 101 69 49 51 21 9 21 40 39 36 45 52 25 12 353 335 350 352 340 342 0 9 0 0 5 15 26 53 55 29 5 22 29 25 10 28 68 123 16 5 358 352 350 349 348 347 345 343 341 339 342 344 344 342 337 335 333 332 330 331 331 330 330 332 332 332 333 334 334 334 332 331 332 333
357 2 13 28 44 49 36 28 43 72 76 76 79 65 44 41 36 12 356 15 42 42 27 19 10 7 5 355 332 340 349 349 349 346 341 354 0 351 355 25 40 29 39 28 347 9 61 108 23 49 2 340 349 350 348 347 348 347 346 346 345 341 338 338 339 338 337 335 335 335 334 330 330 330 329 330 332 332 331 332 335 335 333 332 333 334 331
359 11 32 48 67 69 52 42 48 62 57 53 57 48 36 30 23 18 20 29 32 10 5 1 351 348 350 346 330 321 338 348 347 324 320 347 356 355 355 337 354 32 98 284 328 4 86 68 14 2 324 341 346 346 345 346 347 346 346 345 342 336 335 335 335 337 339 339 338 337 335 334 335 335 332 330 331 331 332 333 331 329 329 332 332 329 326
5 29 63 69 69 68 50 37 34 35 40 45 39 21 10 9 9 19 35 48 21 339 350 356 348 335 335 336 331 319 325 340 344 332 318 347 355 5 26 321 8 57 99 304 328 27 65 37 341 285 329 345 347 345 345 345 344 342 343 341 336 333 334 334 335 337 340 341 340 340 339 338 338 338 336 335 334 333 331 330 327 327 331 334 331 328 330
14 42 85 78 50 42 38 28 25 30 47 49 36 13 355 3 15 27 30 26 4 345 340 340 340 337 335 338 338 329 326 341 346 345 353 348 346 6 60 32 23 36 323 330 17 55 50 56 220 302 339 346 346 343 342 341 339 339 339 336 332 332 334 335 336 339 341 342 343 343 342 339 340 341 342 340 335 330 328 330 332 334 336 335 332 334 338
24 36 83 99 20 19 16 10 19 31 49 44 45 70 359 347 351 351 326 331 335 338 336 336 338 337 334 338 342 338 339 355 355 354 357 351 353 35 67 30 342 323 332 358 42 45 348 228 272 334 343 343 341 340 339 338 338 338 335 330 331 333 335 336 339 341 341 341 343 344 344 344 346 345 341 336 333 332 334 339 343 342 340 337 338 340 343
24 18 33 51 14 14 15 6 23 39 56 349 42 140 155 289 274 242 286 310 314 319 327 332 333 328 325 336 347 351 350 357 0 359 352 354 11 49 63 300 332 25 40 36 17 358 312 300 331 341 342 339 336 336 337 337 338 336 330 329 332 335 337 340 342 342 340 340 341 344 347 348 346 340 336 335 339 343 346 347 347 345 343 343 343 344 344
36 27 49 84 28 17 28 52 20 28 47 39 53 96 139 276 279 280 300 313 317 320 327 332 334 332 336 351 10 13 357 357 3 359 360 13 42 12 339 347 32 39 45 28 347 307 265 305 333 337 336 334 333 334 336 338 337 333 331 333 335 336 338 341 342 340 339 340 341 343 346 345 339 336 338 342 348 353 353 352 350 348 346 345 345 346 345
32 33 51 83 66 19 33 67 77 63 73 82 73 50 6 335 321 315 317 322 325 327 332 336 338 336 350 8 28 18 9 18 27 359 4 37 149 326 3 46 71 52 68 12 292 272 275 323 333 332 331 331 332 334 337 338 334 331 333 335 336 337 340 343 341 339 342 345 344 341 340 339 338 340 345 349 353 356 356 354 352 350 348 347 348 348 346
40 37 47 81 108 12 47 104 112 88 74 75 57 17 360 351 342 333 328 330 333 335 339 349 357 359 6 18 39 21 13 22 31 10 12 42 80 352 13 29 349 310 191 194 257 291 315 326 327 328 329 330 332 335 337 335 332 332 334 335 336 339 342 342 339 342 347 349 342 337 337 340 343 347 351 352 353 355 355 353 352 352 352 352 351 350 348
62 62 68 85 93 82 97 120 121 88 61 49 21 2 359 1 359 351 344 345 346 343 346 4 22 16 358 11 36 54 23 19 21 11 13 24 45 74 61 4 321 309 258 245 303 321 322 322 323 325 328 330 333 335 335 332 330 331 333 335 339 341 341 339 341 347 349 344 338 337 341 345 348 351 353 354 353 353 353 354 354 354 355 355 353 350 347
63 63 63 61 57 64 93 114 115 47 26 18 8 2 1 4 7 4 1 1 1 359 9 26 24 16 16 24 38 53 27 10 26 51 36 34 91 92 16 300 256 271 298 314 321 322 320 320 323 326 329 332 335 336 335 331 329 329 332 337 342 342 341 343 347 346 341 337 338 343 347 349 351 353 354 353 351 350 352 355 356 356 356 356 354 350 347
61 61 59 57 57 71 87 89 81 39 13 5 2 3 4 7 10 11 12 15 17 21 28 17 7 17 45 42 38 32 344 356 34 66 49 276 164 116 57 253 257 296 315 319 319 318 318 320 323 327 329 333 336 335 331 327 326 329 335 341 344 345 347 349 346 338 335 338 344 350 351 352 353 354 354 352 351 351 353 355 356 356 356 356 353 351 350
66 75 75 70 71 82 90 89 80 57 26 8 4 6 8 12 17 22 27 33 39 45 44 29 27 49 66 52 2 332 4 20 39 42 359 257 161 131 271 288 302 315 318 316 316 317 318 320 324 328 331 333 333 330 326 325 328 335 342 345 345 349 351 347 338 335 338 344 349 352 353 353 354 354 354 353 354 354 353 353 355 357 357 355 353 352 353